Time,TemperatureF,DewpointF,PressureIn,WindDirection,WindDirectionDegrees,WindSpeedMPH,WindSpeedGustMPH,Humidity,HourlyPrecipIn,Conditions,Clouds,dailyrainin,SolarRadiationWatts/m^2,SoftwareType,DateUTC
2013-02-17 00:01:00,69.1,60.1,30.15,NE,45,7.4,17.3,73,0.00,RA,BKN,0.00,0.0,WeatherDisplay:10.37,2013-02-17 10:01:00,
2013-02-17 00:06:00,69.1,59.7,30.15,NE,45,4.7,8.1,72,0.00,RA,BKN,0.00,0.0,WeatherDisplay:10.37,2013-02-17 10:06:00,
2013-02-17 00:11:00,69.1,59.7,30.15,North,0,0.0,2.3,72,0.00,RA,BKN,0.00,0.0,WeatherDisplay:10.37,2013-02-17 10:11:00,
2013-02-17 00:16:00,69.1,59.7,30.15,North,0,0.0,2.3,72,0.00,SCT,BKN,0.00,0.0,WeatherDisplay:10.37,2013-02-17 10:16:00,
2013-02-17 00:21:00,69.1,59.7,30.15,North,0,0.0,2.3,72,0.00,SCT,BKN,0.00,0.0,WeatherDisplay:10.37,2013-02-17 10:21:00,
2013-02-17 00:26:00,69.1,59.7,30.15,North,0,0.0,2.3,72,0.00,SCT,BKN,0.00,0.0,WeatherDisplay:10.37,2013-02-17 10:26:00,
2013-02-17 00:31:00,69.1,59.7,30.15,North,0,0.0,2.3,72,0.00,SCT,BKN,0.00,0.0,WeatherDisplay:10.37,2013-02-17 10:31:00,
2013-02-17 00:36:00,69.1,59.7,30.15,North,0,0.0,2.3,72,0.00,SCT,BKN,0.00,0.0,WeatherDisplay:10.37,2013-02-17 10:36:00,
2013-02-17 00:41:00,69.1,59.7,30.15,North,0,0.0,2.3,72,0.00,SCT,BKN,0.00,0.0,WeatherDisplay:10.37,2013-02-17 10:41:00,
2013-02-17 00:46:00,69.1,59.7,30.15,North,0,0.0,2.3,72,0.00,SCT,BKN,0.00,0.0,WeatherDisplay:10.37,2013-02-17 10:46:00,
2013-02-17 00:51:00,69.1,59.7,30.15,North,0,0.0,2.3,72,0.00,SCT,BKN,0.00,0.0,WeatherDisplay:10.37,2013-02-17 10:51:00,
2013-02-17 00:56:00,69.1,59.7,30.15,North,0,0.0,2.3,72,0.00,SCT,BKN,0.00,0.0,WeatherDisplay:10.37,2013-02-17 10:56:00,
2013-02-17 01:01:00,69.1,59.7,30.15,North,0,0.0,2.3,72,0.00,SCT,BKN,0.00,0.0,WeatherDisplay:10.37,2013-02-17 11:01:00,
2013-02-17 01:06:00,69.1,59.7,30.15,North,0,0.0,2.3,72,0.00,SCT,BKN,0.00,0.0,WeatherDisplay:10.37,2013-02-17 11:06:00,
2013-02-17 01:11:00,69.1,59.7,30.15,North,0,0.0,2.3,72,0.00,SCT,BKN,0.00,0.0,WeatherDisplay:10.37,2013-02-17 11:11:00,
2013-02-17 01:16:00,69.1,59.7,30.15,North,0,0.0,2.3,72,0.00,SCT,BKN,0.00,0.0,WeatherDisplay:10.37,2013-02-17 11:16:00,
2013-02-17 01:21:00,69.1,59.7,30.15,North,0,0.0,2.3,72,0.00,SCT,BKN,0.00,0.0,WeatherDisplay:10.37,2013-02-17 11:21:00,
2013-02-17 01:26:00,69.1,59.7,30.15,North,0,0.0,2.3,72,0.00,SCT,BKN,0.00,0.0,WeatherDisplay:10.37,2013-02-17 11:26:00,
2013-02-17 01:31:00,69.1,59.7,30.15,North,0,0.0,2.3,72,0.00,SCT,BKN,0.00,0.0,WeatherDisplay:10.37,2013-02-17 11:31:00,
2013-02-17 01:38:00,69.3,58.7,30.12,ENE,68,2.9,4.9,69,0.00,SCT,BKN,0.00,0.0,WeatherDisplay:10.37,2013-02-17 11:38:00,
2013-02-17 01:43:00,69.4,58.4,30.12,North,0,6.0,10.4,68,0.00,SCT,BKN,0.00,0.0,WeatherDisplay:10.37,2013-02-17 11:43:00,
2013-02-17 01:48:00,69.4,58.4,30.12,North,0,5.9,8.1,68,0.00,SCT,BKN,0.00,0.0,WeatherDisplay:10.37,2013-02-17 11:48:00,
2013-02-17 01:53:00,69.3,58.2,30.12,NNE,22,2.9,9.2,68,0.00,SCT,BKN,0.00,0.0,WeatherDisplay:10.37,2013-02-17 11:53:00,
2013-02-17 01:58:00,69.3,58.7,30.12,NE,45,5.9,5.9,69,0.00,SCT,BKN,0.00,0.0,WeatherDisplay:10.37,2013-02-17 11:58:00,
2013-02-17 02:03:00,69.4,59.2,30.09,NE,45,2.9,10.4,70,0.00,SCT,BKN,0.00,0.0,WeatherDisplay:10.37,2013-02-17 12:03:00,
2013-02-17 02:08:00,69.4,59.6,30.09,East,90,3.6,6.9,71,0.00,SCT,BKN,0.00,0.0,WeatherDisplay:10.37,2013-02-17 12:08:00,
2013-02-17 02:13:00,69.3,59.5,30.09,ENE,68,3.3,5.8,71,0.00,SCT,BKN,0.00,0.0,WeatherDisplay:10.37,2013-02-17 12:13:00,
2013-02-17 02:18:00,69.3,59.5,30.15,NNW,338,6.0,8.5,71,0.00,SCT,BKN,0.00,0.0,WeatherDisplay:10.37,2013-02-17 12:18:00,
2013-02-17 02:23:00,69.3,58.2,30.15,North,0,5.9,15.0,68,0.00,SCT,BKN,0.00,0.0,WeatherDisplay:10.37,2013-02-17 12:23:00,
2013-02-17 02:28:00,69.4,59.2,30.15,NE,45,5.9,6.9,70,0.00,SCT,BKN,0.00,0.0,WeatherDisplay:10.37,2013-02-17 12:28:00,
2013-02-17 02:33:00,69.3,58.7,30.12,NE,45,7.4,12.8,69,0.00,SCT,BKN,0.00,0.0,WeatherDisplay:10.37,2013-02-17 12:33:00,
2013-02-17 02:38:00,69.3,59.5,30.12,NE,45,2.6,6.4,71,0.00,SCT,BKN,0.00,0.0,WeatherDisplay:10.37,2013-02-17 12:38:00,
2013-02-17 02:43:00,69.3,59.5,30.12,NE,45,2.6,6.2,71,0.00,SCT,BKN,0.00,0.0,WeatherDisplay:10.37,2013-02-17 12:43:00,
2013-02-17 02:48:00,69.3,59.5,30.12,NE,45,5.4,6.9,71,0.00,SCT,BKN,0.00,0.0,WeatherDisplay:10.37,2013-02-17 12:48:00,
2013-02-17 02:53:00,69.3,59.1,30.12,NNE,22,6.4,9.4,70,0.00,SCT,BKN,0.00,0.0,WeatherDisplay:10.37,2013-02-17 12:53:00,
2013-02-17 02:58:00,69.4,58.8,30.12,NE,45,2.4,6.9,69,0.00,SCT,BKN,0.00,0.0,WeatherDisplay:10.37,2013-02-17 12:58:00,
2013-02-17 03:03:00,69.3,58.7,30.09,East,90,6.0,9.2,69,0.00,SCT,BKN,0.00,0.0,WeatherDisplay:10.37,2013-02-17 13:03:00,
2013-02-17 03:08:00,69.4,59.2,30.09,NNE,22,6.7,8.1,70,0.00,SCT,BKN,0.00,0.0,WeatherDisplay:10.37,2013-02-17 13:08:00,
2013-02-17 03:13:00,69.4,59.2,30.09,NE,45,4.9,8.1,70,0.00,SCT,BKN,0.00,0.0,WeatherDisplay:10.37,2013-02-17 13:13:00,
2013-02-17 03:18:00,69.4,59.2,30.09,NNW,338,5.6,8.5,70,0.00,SCT,BKN,0.00,0.0,WeatherDisplay:10.37,2013-02-17 13:18:00,
2013-02-17 03:23:00,69.3,58.7,30.09,NNW,338,3.1,6.2,69,0.00,SCT,BKN,0.00,0.0,WeatherDisplay:10.37,2013-02-17 13:23:00,
2013-02-17 03:28:00,69.3,59.1,30.09,East,90,6.7,12.7,70,0.00,SCT,BKN,0.00,0.0,WeatherDisplay:10.37,2013-02-17 13:28:00,
2013-02-17 03:33:00,69.4,59.2,30.12,North,0,2.6,5.8,70,0.00,SCT,BKN,0.00,0.0,WeatherDisplay:10.37,2013-02-17 13:33:00,
2013-02-17 03:38:00,69.3,59.1,30.12,ESE,112,2.2,4.6,70,0.00,SCT,BKN,0.00,0.0,WeatherDisplay:10.37,2013-02-17 13:38:00,
2013-02-17 03:43:00,69.1,59.3,30.12,East,90,2.4,5.8,71,0.00,SCT,BKN,0.00,0.0,WeatherDisplay:10.37,2013-02-17 13:43:00,
2013-02-17 03:48:00,69.3,59.1,30.15,ESE,112,3.8,5.8,70,0.00,SCT,BKN,0.00,0.0,WeatherDisplay:10.37,2013-02-17 13:48:00,
2013-02-17 03:53:00,69.3,59.1,30.15,NE,45,3.6,5.8,70,0.00,SCT,BKN,0.00,0.0,WeatherDisplay:10.37,2013-02-17 13:53:00,
2013-02-17 03:58:00,69.3,59.1,30.15,ENE,68,3.6,5.8,70,0.00,SCT,BKN,0.00,0.0,WeatherDisplay:10.37,2013-02-17 13:58:00,
2013-02-17 04:03:00,69.3,59.1,30.12,ENE,68,3.3,5.8,70,0.00,SCT,BKN,0.00,0.0,WeatherDisplay:10.37,2013-02-17 14:03:00,
2013-02-17 04:08:00,69.3,59.5,30.12,NE,45,7.4,8.1,71,0.00,SCT,BKN,0.00,0.0,WeatherDisplay:10.37,2013-02-17 14:08:00,
2013-02-17 04:13:00,69.4,59.2,30.12,NE,45,5.9,9.2,70,0.00,SCT,BKN,0.00,0.0,WeatherDisplay:10.37,2013-02-17 14:13:00,
2013-02-17 04:18:00,69.4,59.2,30.12,NE,45,3.8,8.1,70,0.00,SCT,BKN,0.00,0.0,WeatherDisplay:10.37,2013-02-17 14:18:00,
2013-02-17 04:23:00,69.4,59.6,30.12,SSE,158,6.4,14.5,71,0.00,SCT,BKN,0.00,0.0,WeatherDisplay:10.37,2013-02-17 14:23:00,
2013-02-17 04:28:00,69.3,59.5,30.12,NE,45,5.4,12.3,71,0.00,SCT,BKN,0.00,0.0,WeatherDisplay:10.37,2013-02-17 14:28:00,
2013-02-17 04:33:00,69.3,59.5,30.12,ENE,68,3.6,6.7,71,0.00,SCT,BKN,0.00,0.0,WeatherDisplay:10.37,2013-02-17 14:33:00,
2013-02-17 04:38:00,69.3,59.5,30.12,East,90,6.9,9.7,71,0.00,SCT,BKN,0.00,0.0,WeatherDisplay:10.37,2013-02-17 14:38:00,
2013-02-17 04:43:00,69.3,59.1,30.12,East,90,2.9,5.8,70,0.00,SCT,BKN,0.00,0.0,WeatherDisplay:10.37,2013-02-17 14:43:00,
2013-02-17 04:48:00,69.4,59.2,30.12,ENE,68,7.6,13.8,70,0.00,SCT,BKN,0.00,0.0,WeatherDisplay:10.37,2013-02-17 14:48:00,
2013-02-17 04:54:00,69.3,59.1,30.12,East,90,2.6,3.5,70,0.00,SCT,BKN,0.00,0.0,WeatherDisplay:10.37,2013-02-17 14:54:00,
2013-02-17 04:59:00,69.3,59.5,30.12,NNE,22,3.3,5.8,71,0.00,SCT,BKN,0.00,0.0,WeatherDisplay:10.37,2013-02-17 14:59:00,
2013-02-17 05:04:00,69.3,59.8,30.12,East,90,4.5,6.9,72,0.00,SCT,BKN,0.00,0.0,WeatherDisplay:10.37,2013-02-17 15:04:00,
2013-02-17 05:09:00,69.3,59.8,30.12,ESE,112,2.9,5.6,72,0.00,SCT,BKN,0.00,0.0,WeatherDisplay:10.37,2013-02-17 15:09:00,
2013-02-17 05:14:00,69.3,59.8,30.12,NE,45,6.7,12.7,72,0.00,SCT,BKN,0.00,0.0,WeatherDisplay:10.37,2013-02-17 15:14:00,
2013-02-17 05:19:00,69.3,59.5,30.12,ESE,112,3.3,6.9,71,0.00,SCT,BKN,0.00,0.0,WeatherDisplay:10.37,2013-02-17 15:19:00,
2013-02-17 05:24:00,69.3,59.5,30.12,East,90,3.6,8.1,71,0.00,SCT,BKN,0.00,0.0,WeatherDisplay:10.37,2013-02-17 15:24:00,
2013-02-17 05:29:00,69.3,59.5,30.12,NNE,22,3.3,4.6,71,0.00,SCT,BKN,0.00,0.0,WeatherDisplay:10.37,2013-02-17 15:29:00,
2013-02-17 05:34:00,69.3,59.5,30.15,NNE,22,4.3,5.8,71,0.00,SCT,BKN,0.00,0.0,WeatherDisplay:10.37,2013-02-17 15:34:00,
2013-02-17 05:39:00,69.3,59.8,30.15,ENE,68,3.6,5.8,72,0.00,SCT,BKN,0.00,0.0,WeatherDisplay:10.37,2013-02-17 15:39:00,
2013-02-17 05:44:00,69.3,59.5,30.15,ESE,112,2.9,4.6,71,0.00,SCT,BKN,0.00,0.0,WeatherDisplay:10.37,2013-02-17 15:44:00,
2013-02-17 05:49:00,69.4,60.4,30.09,East,90,6.2,6.9,73,0.00,SCT,BKN,0.00,0.0,WeatherDisplay:10.37,2013-02-17 15:49:00,
2013-02-17 05:54:00,69.1,60.1,30.09,East,90,3.8,5.8,73,0.00,SCT,BKN,0.00,0.0,WeatherDisplay:10.37,2013-02-17 15:54:00,
2013-02-17 05:59:00,68.9,60.6,30.09,NE,45,5.4,8.1,75,0.00,SCT,BKN,0.00,0.0,WeatherDisplay:10.37,2013-02-17 15:59:00,
2013-02-17 06:04:00,68.7,60.8,30.12,ENE,68,2.6,8.5,76,0.00,SCT,BKN,0.00,0.0,WeatherDisplay:10.37,2013-02-17 16:04:00,
2013-02-17 06:09:00,68.5,61.4,30.12,ESE,112,4.0,9.2,78,0.00,SCT,BKN,0.00,0.0,WeatherDisplay:10.37,2013-02-17 16:09:00,
2013-02-17 06:14:00,68.5,61.4,30.12,NE,45,4.0,5.8,78,0.00,SCT,BKN,0.00,0.0,WeatherDisplay:10.37,2013-02-17 16:14:00,
2013-02-17 06:19:00,68.7,61.9,30.12,ENE,68,5.4,6.9,79,0.00,SCT,BKN,0.00,0.0,WeatherDisplay:10.37,2013-02-17 16:19:00,
2013-02-17 06:24:00,68.5,61.8,30.12,ESE,112,5.9,8.1,79,0.00,SCT,BKN,0.00,0.0,WeatherDisplay:10.37,2013-02-17 16:24:00,
2013-02-17 06:29:00,68.5,62.1,30.12,West,270,3.8,5.8,80,0.00,SCT,BKN,0.00,0.0,WeatherDisplay:10.37,2013-02-17 16:29:00,
2013-02-17 06:34:00,68.5,62.5,30.12,NE,45,5.9,8.1,81,0.00,SCT,BKN,0.00,0.0,WeatherDisplay:10.37,2013-02-17 16:34:00,
2013-02-17 06:39:00,68.4,61.9,30.12,NE,45,4.0,9.8,80,0.00,SCT,BKN,0.00,0.0,WeatherDisplay:10.37,2013-02-17 16:39:00,
2013-02-17 06:44:00,68.4,61.9,30.12,South,180,2.9,4.6,80,0.00,SCT,BKN,0.00,0.0,WeatherDisplay:10.37,2013-02-17 16:44:00,
2013-02-17 06:49:00,68.5,61.8,30.12,ENE,68,5.4,6.9,79,0.00,SCT,BKN,0.00,0.0,WeatherDisplay:10.37,2013-02-17 16:49:00,
2013-02-17 06:54:00,68.7,61.9,30.12,NNW,338,4.5,10.9,79,0.00,SCT,BKN,0.00,0.0,WeatherDisplay:10.37,2013-02-17 16:54:00,
2013-02-17 06:59:00,68.7,61.9,30.12,NNE,22,5.9,9.2,79,0.00,SCT,BKN,0.00,0.0,WeatherDisplay:10.37,2013-02-17 16:59:00,
2013-02-17 07:04:00,68.9,61.4,30.15,ENE,68,3.3,5.4,77,0.00,SCT,BKN,0.00,0.0,WeatherDisplay:10.37,2013-02-17 17:04:00,
2013-02-17 07:09:00,69.1,61.9,30.15,NE,45,7.8,9.2,78,0.00,SCT,BKN,0.00,0.0,WeatherDisplay:10.37,2013-02-17 17:09:00,
2013-02-17 07:14:00,68.9,62.1,30.15,NE,45,4.0,5.8,79,0.00,SCT,BKN,0.00,0.0,WeatherDisplay:10.37,2013-02-17 17:14:00,
2013-02-17 07:19:00,68.9,62.5,30.15,ENE,68,9.0,9.0,80,0.00,SCT,BKN,0.00,0.0,WeatherDisplay:10.37,2013-02-17 17:19:00,
2013-02-17 07:24:00,68.9,62.5,30.15,East,90,5.6,12.7,80,0.00,SCT,BKN,0.00,0.0,WeatherDisplay:10.37,2013-02-17 17:24:00,
2013-02-17 07:29:00,68.9,62.1,30.15,NNW,338,5.9,10.7,79,0.00,SCT,BKN,0.00,0.0,WeatherDisplay:10.37,2013-02-17 17:29:00,
2013-02-17 07:34:00,68.9,61.4,30.18,NE,45,3.8,5.9,77,0.00,SCT,BKN,0.00,0.0,WeatherDisplay:10.37,2013-02-17 17:34:00,
2013-02-17 07:39:00,68.7,60.8,30.18,North,0,3.8,8.1,76,0.00,SCT,BKN,0.00,0.0,WeatherDisplay:10.37,2013-02-17 17:39:00,
2013-02-17 07:44:00,68.9,60.6,30.18,ENE,68,6.2,10.4,75,0.00,SCT,BKN,0.00,0.0,WeatherDisplay:10.37,2013-02-17 17:44:00,
2013-02-17 07:49:00,68.9,60.3,30.15,ENE,68,4.5,5.8,74,0.00,SCT,BKN,0.00,0.0,WeatherDisplay:10.37,2013-02-17 17:49:00,
2013-02-17 07:54:00,68.7,60.8,30.15,NNE,22,7.8,7.8,76,0.00,SCT,BKN,0.00,0.0,WeatherDisplay:10.37,2013-02-17 17:54:00,
2013-02-17 07:59:00,68.5,60.7,30.15,NNE,22,4.3,5.8,76,0.00,SCT,BKN,0.00,0.0,WeatherDisplay:10.37,2013-02-17 17:59:00,
2013-02-17 08:04:00,68.5,61.0,30.15,ENE,68,7.6,10.4,77,0.00,SCT,BKN,0.00,0.0,WeatherDisplay:10.37,2013-02-17 18:04:00,
2013-02-17 08:09:00,68.7,61.2,30.15,NE,45,8.1,13.8,77,0.00,SCT,BKN,0.00,0.0,WeatherDisplay:10.37,2013-02-17 18:09:00,
2013-02-17 08:14:00,68.9,61.0,30.15,ENE,68,6.7,12.7,76,0.00,SCT,BKN,0.00,0.0,WeatherDisplay:10.37,2013-02-17 18:14:00,
2013-02-17 08:19:00,69.1,61.2,30.15,East,90,2.9,8.1,76,0.00,SCT,BKN,0.00,0.0,WeatherDisplay:10.37,2013-02-17 18:19:00,
2013-02-17 08:24:00,69.3,61.0,30.15,NNE,22,9.7,10.9,75,0.00,SCT,BKN,0.00,0.0,WeatherDisplay:10.37,2013-02-17 18:24:00,
2013-02-17 08:29:00,69.4,61.2,30.15,NE,45,6.9,13.8,75,0.00,SCT,BKN,0.00,0.0,WeatherDisplay:10.37,2013-02-17 18:29:00,
2013-02-17 08:34:00,69.4,61.2,30.15,NE,45,9.7,11.5,75,0.00,SCT,BKN,0.00,0.0,WeatherDisplay:10.37,2013-02-17 18:34:00,
2013-02-17 08:39:00,68.4,60.9,30.15,North,0,5.6,8.1,77,0.00,SCT,BKN,0.00,0.0,WeatherDisplay:10.37,2013-02-17 18:39:00,
2013-02-17 08:44:00,67.5,61.1,30.15,NW,315,4.3,6.9,80,0.00,SCT,BKN,0.00,0.0,WeatherDisplay:10.37,2013-02-17 18:44:00,
2013-02-17 08:49:00,67.3,61.2,30.18,WSW,248,7.1,8.1,81,0.00,SCT,BKN,0.00,0.0,WeatherDisplay:10.37,2013-02-17 18:49:00,
2013-02-17 08:54:00,67.5,61.4,30.18,NE,45,7.1,13.8,81,0.00,SCT,BKN,0.00,0.0,WeatherDisplay:10.37,2013-02-17 18:54:00,
2013-02-17 08:59:00,67.8,61.8,30.18,NE,45,8.5,12.7,81,0.00,SCT,BKN,0.00,0.0,WeatherDisplay:10.37,2013-02-17 18:59:00,
2013-02-17 09:04:00,68.2,61.8,30.18,NE,45,6.4,11.5,80,0.00,SCT,BKN,0.00,0.0,WeatherDisplay:10.37,2013-02-17 19:04:00,
2013-02-17 09:09:00,68.4,61.9,30.18,NE,45,8.1,8.1,80,0.00,SCT,BKN,0.00,0.0,WeatherDisplay:10.37,2013-02-17 19:09:00,
2013-02-17 09:14:00,68.7,62.3,30.18,NE,45,4.0,8.1,80,0.00,SCT,BKN,0.00,0.0,WeatherDisplay:10.37,2013-02-17 19:14:00,
2013-02-17 09:19:00,68.9,62.8,30.18,North,0,2.4,5.8,81,0.00,SCT,BKN,0.00,125.0,WeatherDisplay:10.37,2013-02-17 19:19:00,
2013-02-17 09:24:00,68.2,63.2,30.18,NE,45,3.8,4.6,84,0.00,SCT,BKN,0.00,125.0,WeatherDisplay:10.37,2013-02-17 19:24:00,
2013-02-17 09:29:00,67.8,62.1,30.18,NNW,338,3.8,5.8,82,0.00,SCT,BKN,0.00,125.0,WeatherDisplay:10.37,2013-02-17 19:29:00,
2013-02-17 09:34:00,67.6,61.6,30.18,ENE,68,9.0,16.1,81,0.05,RA,BKN,0.05,125.0,WeatherDisplay:10.37,2013-02-17 19:34:00,
2013-02-17 09:39:00,68.0,61.6,30.18,East,90,7.6,17.3,80,0.05,RA,BKN,0.05,125.0,WeatherDisplay:10.37,2013-02-17 19:39:00,
2013-02-17 09:44:00,68.4,62.3,30.18,NNE,22,5.4,10.2,81,0.05,SCT,BKN,0.05,125.0,WeatherDisplay:10.37,2013-02-17 19:44:00,
2013-02-17 09:49:00,68.7,61.6,30.18,NE,45,5.6,6.9,78,0.05,SCT,BKN,0.05,125.0,WeatherDisplay:10.37,2013-02-17 19:49:00,
2013-02-17 09:54:00,69.1,61.2,30.18,NE,45,3.6,6.2,76,0.05,SCT,BKN,0.05,125.0,WeatherDisplay:10.37,2013-02-17 19:54:00,
2013-02-17 09:59:00,69.1,59.3,30.18,ENE,68,5.9,6.9,71,0.05,SCT,BKN,0.05,125.0,WeatherDisplay:10.37,2013-02-17 19:59:00,
2013-02-17 10:04:00,69.1,58.5,30.15,NNE,22,5.9,9.2,69,0.05,SCT,BKN,0.05,125.0,WeatherDisplay:10.37,2013-02-17 20:04:00,
2013-02-17 10:09:00,69.6,59.8,30.15,NNE,22,10.0,15.6,71,0.05,SCT,BKN,0.05,125.0,WeatherDisplay:10.37,2013-02-17 20:09:00,
2013-02-17 10:14:00,70.2,60.3,30.15,North,0,6.4,8.7,71,0.05,SCT,BKN,0.05,125.0,WeatherDisplay:10.37,2013-02-17 20:14:00,
2013-02-17 10:19:00,70.5,59.9,30.18,North,0,3.6,6.9,69,0.05,SCT,BKN,0.05,125.0,WeatherDisplay:10.37,2013-02-17 20:19:00,
2013-02-17 10:24:00,70.5,59.9,30.18,ENE,68,5.9,10.4,69,0.05,SCT,BKN,0.05,125.0,WeatherDisplay:10.37,2013-02-17 20:24:00,
2013-02-17 10:29:00,70.7,59.6,30.18,East,90,6.0,8.1,68,0.05,SCT,BKN,0.05,125.0,WeatherDisplay:10.37,2013-02-17 20:29:00,
2013-02-17 10:34:00,70.7,59.6,30.21,East,90,7.4,8.1,68,0.00,SCT,BKN,0.05,125.0,WeatherDisplay:10.37,2013-02-17 20:34:00,
2013-02-17 10:39:00,71.2,60.1,30.21,North,0,4.0,9.8,68,0.00,SCT,BKN,0.05,125.0,WeatherDisplay:10.37,2013-02-17 20:39:00,
2013-02-17 10:44:00,71.4,59.9,30.21,East,90,6.9,14.5,67,0.00,SCT,BKN,0.05,125.0,WeatherDisplay:10.37,2013-02-17 20:44:00,
2013-02-17 10:49:00,71.4,59.9,30.18,NNE,22,6.2,14.3,67,0.00,SCT,BKN,0.05,125.0,WeatherDisplay:10.37,2013-02-17 20:49:00,
2013-02-17 10:55:00,71.5,60.0,30.18,NE,45,5.0,0.0,67,0.00,SCT,BKN,0.05,250.0,WeatherDisplay:10.37,2013-02-17 20:55:00,
2013-02-17 11:00:00,71.6,60.1,30.18,ENE,58,3.0,0.0,67,0.00,SCT,BKN,0.05,250.0,WeatherDisplay:10.37,2013-02-17 21:00:00,
2013-02-17 11:05:00,71.7,59.7,30.18,NE,51,7.0,0.0,66,0.00,SCT,BKN,0.05,125.0,WeatherDisplay:10.37,2013-02-17 21:05:00,
2013-02-17 11:10:00,71.6,60.1,30.18,NE,48,7.0,0.0,67,0.00,SCT,BKN,0.05,250.0,WeatherDisplay:10.37,2013-02-17 21:10:00,
2013-02-17 11:15:00,72.1,60.6,30.18,NNE,22,3.3,4.9,67,0.00,SCT,BKN,0.05,250.0,WeatherDisplay:10.37,2013-02-17 21:15:00,
2013-02-17 11:20:00,72.3,60.7,30.18,East,90,4.9,8.1,67,0.00,SCT,BKN,0.05,250.0,WeatherDisplay:10.37,2013-02-17 21:20:00,
2013-02-17 11:25:00,72.5,60.1,30.18,NNE,22,7.1,10.4,65,0.00,SCT,BKN,0.05,250.0,WeatherDisplay:10.37,2013-02-17 21:25:00,
2013-02-17 11:30:00,72.3,61.2,30.18,ENE,68,3.1,6.0,68,0.00,SCT,BKN,0.05,250.0,WeatherDisplay:10.37,2013-02-17 21:30:00,
2013-02-17 11:35:00,72.7,60.2,30.18,NE,45,6.4,15.0,65,0.00,SCT,BKN,0.05,250.0,WeatherDisplay:10.37,2013-02-17 21:35:00,
2013-02-17 11:40:00,72.9,60.8,30.18,ENE,68,7.4,10.4,66,0.00,SCT,BKN,0.05,250.0,WeatherDisplay:10.37,2013-02-17 21:40:00,
2013-02-17 11:45:00,72.7,61.1,30.18,NE,45,4.9,8.7,67,0.00,SCT,BKN,0.05,250.0,WeatherDisplay:10.37,2013-02-17 21:45:00,
2013-02-17 11:50:00,72.5,60.9,30.18,NE,45,4.0,6.9,67,0.00,SCT,BKN,0.05,250.0,WeatherDisplay:10.37,2013-02-17 21:50:00,
2013-02-17 11:55:00,72.7,61.1,30.18,NW,315,4.7,6.9,67,0.00,SCT,BKN,0.05,250.0,WeatherDisplay:10.37,2013-02-17 21:55:00,
2013-02-17 12:00:00,72.5,60.9,30.18,East,90,3.1,13.8,67,0.00,SCT,BKN,0.05,125.0,WeatherDisplay:10.37,2013-02-17 22:00:00,
2013-02-17 12:05:00,72.9,61.3,30.18,NNE,22,3.3,6.0,67,0.00,SCT,BKN,0.05,375.0,WeatherDisplay:10.37,2013-02-17 22:05:00,
2013-02-17 12:10:00,73.0,61.4,30.18,NNE,22,2.6,6.9,67,0.00,SCT,BKN,0.05,250.0,WeatherDisplay:10.37,2013-02-17 22:10:00,
2013-02-17 12:15:00,73.0,61.4,30.18,NE,45,4.3,8.5,67,0.00,SCT,BKN,0.05,250.0,WeatherDisplay:10.37,2013-02-17 22:15:00,
2013-02-17 12:20:00,72.7,60.2,30.18,NE,45,9.7,15.0,65,0.00,SCT,BKN,0.05,375.0,WeatherDisplay:10.37,2013-02-17 22:20:00,
2013-02-17 12:25:00,72.9,60.4,30.18,SE,135,4.5,7.4,65,0.00,SCT,BKN,0.05,375.0,WeatherDisplay:10.37,2013-02-17 22:25:00,
2013-02-17 12:30:00,73.8,60.4,30.18,NNE,22,5.4,9.2,63,0.00,SCT,BKN,0.05,250.0,WeatherDisplay:10.37,2013-02-17 22:30:00,
2013-02-17 13:34:00,77.0,60.1,30.12,NE,45,3.6,6.0,56,0.00,SCT,BKN,0.05,875.0,WeatherDisplay:10.37,2013-02-17 23:34:00,
2013-02-17 13:39:00,76.1,59.3,30.12,ENE,68,9.0,12.7,56,0.00,SCT,BKN,0.05,500.0,WeatherDisplay:10.37,2013-02-17 23:39:00,
2013-02-17 13:44:00,76.5,60.1,30.12,NNE,22,9.0,11.5,57,0.00,SCT,BKN,0.05,1115.0,WeatherDisplay:10.37,2013-02-17 23:44:00,
2013-02-17 13:49:00,77.7,60.3,30.12,North,0,4.9,8.1,55,0.00,SCT,BKN,0.05,1250.0,WeatherDisplay:10.37,2013-02-17 23:49:00,
2013-02-17 13:54:00,79.7,62.6,30.12,NE,45,3.3,5.8,56,0.00,SCT,BKN,0.05,750.0,WeatherDisplay:10.37,2013-02-17 23:54:00,
2013-02-17 13:59:00,77.5,60.6,30.12,NNE,22,7.1,13.8,56,0.00,SCT,BKN,0.05,1250.0,WeatherDisplay:10.37,2013-02-17 23:59:00,
2013-02-17 14:04:00,77.7,60.8,30.12,NE,45,6.2,10.4,56,0.00,SCT,BKN,0.05,1250.0,WeatherDisplay:10.37,2013-02-18 00:04:00,
2013-02-17 14:09:00,78.1,60.1,30.12,NE,45,7.6,11.5,54,0.00,SCT,BKN,0.05,1077.0,WeatherDisplay:10.37,2013-02-18 00:09:00,
2013-02-17 14:14:00,77.7,60.3,30.12,NNE,22,6.0,8.1,55,0.00,SCT,BKN,0.05,1125.0,WeatherDisplay:10.37,2013-02-18 00:14:00,
2013-02-17 14:19:00,78.1,60.6,30.12,ENE,68,7.1,12.7,55,0.00,SCT,BKN,0.05,1058.0,WeatherDisplay:10.37,2013-02-18 00:19:00,
2013-02-17 14:24:00,77.4,60.4,30.12,NE,45,8.7,17.3,56,0.00,SCT,BKN,0.05,1250.0,WeatherDisplay:10.37,2013-02-18 00:24:00,
2013-02-17 14:29:00,77.2,61.3,30.12,NE,45,7.4,11.5,58,0.00,SCT,BKN,0.05,1037.0,WeatherDisplay:10.37,2013-02-18 00:29:00,
2013-02-17 14:34:00,77.5,60.6,30.12,ESE,112,7.6,9.2,56,0.00,SCT,BKN,0.05,1125.0,WeatherDisplay:10.37,2013-02-18 00:34:00,
2013-02-17 14:39:00,77.9,60.4,30.12,NE,45,8.5,12.7,55,0.00,SCT,BKN,0.05,1014.0,WeatherDisplay:10.37,2013-02-18 00:39:00,
2013-02-17 14:44:00,78.8,61.8,30.12,NE,45,7.4,10.4,56,0.00,SCT,BKN,0.05,1001.0,WeatherDisplay:10.37,2013-02-18 00:44:00,
2013-02-17 14:49:00,77.4,59.4,30.09,NE,45,9.7,12.7,54,0.00,SCT,BKN,0.05,988.0,WeatherDisplay:10.37,2013-02-18 00:49:00,
2013-02-17 14:54:00,77.5,59.1,30.09,NNE,22,10.0,12.7,53,0.00,RA,BKN,0.05,1000.0,WeatherDisplay:10.37,2013-02-18 00:54:00,
2013-02-17 14:59:00,77.9,59.4,30.09,North,0,7.8,13.8,53,0.00,RA,BKN,0.05,1000.0,WeatherDisplay:10.37,2013-02-18 00:59:00,
2013-02-17 15:04:00,77.5,59.1,30.09,NE,45,9.4,13.8,53,0.00,SCT,BKN,0.05,946.0,WeatherDisplay:10.37,2013-02-18 01:04:00,
2013-02-17 15:09:00,78.1,60.6,30.09,NE,45,2.9,10.5,55,0.00,SCT,BKN,0.05,1000.0,WeatherDisplay:10.37,2013-02-18 01:09:00,
2013-02-17 15:14:00,77.7,59.2,30.09,ENE,68,7.6,8.1,53,0.00,SCT,BKN,0.05,875.0,WeatherDisplay:10.37,2013-02-18 01:14:00,
2013-02-17 15:19:00,77.2,58.7,30.09,NE,45,9.7,15.0,53,0.00,SCT,BKN,0.05,875.0,WeatherDisplay:10.37,2013-02-18 01:19:00,
2013-02-17 15:24:00,76.6,59.3,30.09,NE,45,7.8,10.5,55,0.00,SCT,BKN,0.05,875.0,WeatherDisplay:10.37,2013-02-18 01:24:00,
2013-02-17 15:29:00,77.5,60.6,30.09,NE,45,7.6,12.7,56,0.00,SCT,BKN,0.05,866.0,WeatherDisplay:10.37,2013-02-18 01:29:00,
2013-02-17 15:34:00,76.8,60.9,30.09,East,90,9.4,15.0,58,0.00,SCT,BKN,0.05,750.0,WeatherDisplay:10.37,2013-02-18 01:34:00,
2013-02-17 15:39:00,76.8,61.4,30.09,East,90,6.9,12.7,59,0.00,SCT,BKN,0.05,625.0,WeatherDisplay:10.37,2013-02-18 01:39:00,
2013-02-17 15:44:00,75.4,60.5,30.09,ENE,68,10.5,17.3,60,0.00,SCT,BKN,0.05,750.0,WeatherDisplay:10.37,2013-02-18 01:44:00,
2013-02-17 15:49:00,74.3,60.4,30.09,ENE,68,8.7,10.4,62,0.00,SCT,BKN,0.05,125.0,WeatherDisplay:10.37,2013-02-18 01:49:00,
2013-02-17 15:54:00,74.1,60.3,30.09,ENE,68,9.8,12.7,62,0.00,SCT,BKN,0.05,625.0,WeatherDisplay:10.37,2013-02-18 01:54:00,
2013-02-17 15:59:00,74.3,60.4,30.09,East,90,6.7,8.5,62,0.00,SCT,BKN,0.05,375.0,WeatherDisplay:10.37,2013-02-18 01:59:00,
2013-02-17 16:04:00,74.1,59.8,30.09,East,90,7.6,10.4,61,0.00,SCT,BKN,0.05,375.0,WeatherDisplay:10.37,2013-02-18 02:04:00,
2013-02-17 16:09:00,75.2,60.4,30.09,ENE,68,4.7,5.8,60,0.00,SCT,BKN,0.05,500.0,WeatherDisplay:10.37,2013-02-18 02:09:00,
2013-02-17 16:14:00,76.3,59.9,30.09,ENE,68,5.9,6.9,57,0.00,SCT,BKN,0.05,500.0,WeatherDisplay:10.37,2013-02-18 02:14:00,
2013-02-17 16:19:00,75.7,57.4,30.12,ENE,68,6.2,8.1,53,0.00,SCT,BKN,0.05,375.0,WeatherDisplay:10.37,2013-02-18 02:19:00,
2013-02-17 16:24:00,75.9,57.6,30.12,ENE,68,6.9,6.9,53,0.00,SCT,BKN,0.05,375.0,WeatherDisplay:10.37,2013-02-18 02:24:00,
2013-02-17 16:29:00,75.7,57.4,30.12,East,90,8.1,12.7,53,0.00,SCT,BKN,0.05,375.0,WeatherDisplay:10.37,2013-02-18 02:29:00,
2013-02-17 16:34:00,74.1,57.9,30.12,NE,45,7.8,9.2,57,0.00,SCT,BKN,0.05,125.0,WeatherDisplay:10.37,2013-02-18 02:34:00,
2013-02-17 16:39:00,73.0,58.3,30.12,NE,45,7.4,12.8,60,0.00,SCT,BKN,0.05,125.0,WeatherDisplay:10.37,2013-02-18 02:39:00,
2013-02-17 16:44:00,72.9,59.1,30.12,ENE,68,6.9,12.8,62,0.00,SCT,BKN,0.05,0.0,WeatherDisplay:10.37,2013-02-18 02:44:00,
2013-02-17 16:49:00,72.3,58.6,30.12,ENE,68,4.7,8.1,62,0.00,SCT,BKN,0.05,125.0,WeatherDisplay:10.37,2013-02-18 02:49:00,
2013-02-17 16:54:00,72.3,59.5,30.12,North,0,6.9,10.4,64,0.00,SCT,BKN,0.05,0.0,WeatherDisplay:10.37,2013-02-18 02:54:00,
2013-02-17 16:59:00,72.0,58.7,30.12,ENE,68,8.7,11.5,63,0.00,SCT,BKN,0.05,0.0,WeatherDisplay:10.37,2013-02-18 02:59:00,
2013-02-17 17:04:00,71.8,58.5,30.12,North,0,9.4,9.4,63,0.00,SCT,BKN,0.05,0.0,WeatherDisplay:10.37,2013-02-18 03:04:00,
2013-02-17 17:09:00,71.4,57.3,30.12,NE,45,7.8,10.4,61,0.00,SCT,BKN,0.05,0.0,WeatherDisplay:10.37,2013-02-18 03:09:00,
2013-02-17 17:14:00,71.2,57.5,30.12,NE,45,8.1,11.5,62,0.00,SCT,BKN,0.05,0.0,WeatherDisplay:10.37,2013-02-18 03:14:00,
2013-02-17 17:19:00,71.2,57.5,30.12,ENE,68,6.4,10.4,62,0.00,SCT,BKN,0.05,0.0,WeatherDisplay:10.37,2013-02-18 03:19:00,
2013-02-17 17:24:00,71.4,57.3,30.12,North,0,8.1,10.4,61,0.00,SCT,BKN,0.05,0.0,WeatherDisplay:10.37,2013-02-18 03:24:00,
2013-02-17 17:29:00,71.2,57.5,30.12,NNE,22,4.0,8.1,62,0.00,SCT,BKN,0.05,0.0,WeatherDisplay:10.37,2013-02-18 03:29:00,
2013-02-17 17:34:00,71.4,57.7,30.12,NE,45,5.6,6.9,62,0.00,SCT,BKN,0.05,0.0,WeatherDisplay:10.37,2013-02-18 03:34:00,
2013-02-17 17:39:00,72.9,59.1,30.12,ENE,68,6.9,13.8,62,0.00,SCT,BKN,0.05,0.0,WeatherDisplay:10.37,2013-02-18 03:39:00,
2013-02-17 17:44:00,72.5,57.8,30.12,NE,45,6.7,11.5,60,0.00,SCT,BKN,0.05,0.0,WeatherDisplay:10.37,2013-02-18 03:44:00,
2013-02-17 17:49:00,72.5,57.8,30.12,ENE,68,5.9,8.1,60,0.00,SCT,BKN,0.05,0.0,WeatherDisplay:10.37,2013-02-18 03:49:00,
2013-02-17 17:54:00,72.9,58.2,30.12,NE,45,9.0,15.0,60,0.00,SCT,BKN,0.05,0.0,WeatherDisplay:10.37,2013-02-18 03:54:00,
2013-02-17 17:59:00,73.2,59.0,30.12,ENE,68,2.6,5.8,61,0.00,SCT,BKN,0.05,0.0,WeatherDisplay:10.37,2013-02-18 03:59:00,
2013-02-17 18:04:00,72.9,59.1,30.09,East,90,5.6,8.1,62,0.00,SCT,BKN,0.05,0.0,WeatherDisplay:10.37,2013-02-18 04:04:00,
2013-02-17 18:09:00,72.0,58.7,30.09,East,90,8.5,10.4,63,0.00,SCT,BKN,0.05,0.0,WeatherDisplay:10.37,2013-02-18 04:09:00,
2013-02-17 18:14:00,71.8,58.9,30.09,NNE,22,5.6,5.8,64,0.00,SCT,BKN,0.05,0.0,WeatherDisplay:10.37,2013-02-18 04:14:00,
2013-02-17 18:19:00,71.4,59.0,30.12,East,90,6.9,9.2,65,0.00,SCT,BKN,0.05,0.0,WeatherDisplay:10.37,2013-02-18 04:19:00,
2013-02-17 18:24:00,70.9,59.4,30.12,ENE,68,4.0,6.9,67,0.00,SCT,BKN,0.05,0.0,WeatherDisplay:10.37,2013-02-18 04:24:00,
2013-02-17 18:29:00,70.7,59.6,30.12,East,90,7.8,7.8,68,0.00,SCT,BKN,0.05,0.0,WeatherDisplay:10.37,2013-02-18 04:29:00,
2013-02-17 18:34:00,70.5,59.4,30.12,East,90,3.8,8.1,68,0.00,SCT,BKN,0.05,0.0,WeatherDisplay:10.37,2013-02-18 04:34:00,
2013-02-17 18:39:00,70.5,59.9,30.12,SE,135,6.4,8.1,69,0.00,SCT,BKN,0.05,0.0,WeatherDisplay:10.37,2013-02-18 04:39:00,
2013-02-17 18:44:00,70.3,59.3,30.12,NE,45,4.0,6.9,68,0.00,SCT,BKN,0.05,0.0,WeatherDisplay:10.37,2013-02-18 04:44:00,
2013-02-17 18:49:00,70.3,59.7,30.12,NE,45,7.1,12.7,69,0.00,SCT,BKN,0.05,0.0,WeatherDisplay:10.37,2013-02-18 04:49:00,
2013-02-17 18:54:00,70.3,59.7,30.12,NE,45,4.3,6.9,69,0.00,SCT,BKN,0.05,0.0,WeatherDisplay:10.37,2013-02-18 04:54:00,
2013-02-17 18:59:00,70.3,59.7,30.12,North,0,7.8,10.4,69,0.00,SCT,BKN,0.05,0.0,WeatherDisplay:10.37,2013-02-18 04:59:00,
2013-02-17 19:00:00,70.3,59.7,30.12,NE,50,7.0,0.0,69,0.00,SCT,BKN,0.05,0.0,WeatherDisplay:10.37,2013-02-18 05:00:00,
2013-02-17 19:01:00,70.3,59.7,30.12,South,180,3.1,8.1,69,0.00,SCT,BKN,0.05,0.0,WeatherDisplay:10.37,2013-02-18 05:01:00,
2013-02-17 19:06:00,70.2,59.5,30.12,ENE,68,2.9,9.2,69,0.00,SCT,BKN,0.05,0.0,WeatherDisplay:10.37,2013-02-18 05:06:00,
2013-02-17 19:11:00,70.2,59.5,30.12,ENE,68,7.8,10.4,69,0.00,SCT,BKN,0.05,0.0,WeatherDisplay:10.37,2013-02-18 05:11:00,
2013-02-17 19:16:00,70.2,59.9,30.12,East,90,6.4,9.2,70,0.00,SCT,BKN,0.05,0.0,WeatherDisplay:10.37,2013-02-18 05:16:00,
2013-02-17 19:21:00,70.2,59.9,30.12,NE,45,7.1,8.7,70,0.00,SCT,BKN,0.05,0.0,WeatherDisplay:10.37,2013-02-18 05:21:00,
2013-02-17 19:26:00,70.0,59.3,30.12,WNW,292,4.7,8.1,69,0.00,SCT,BKN,0.05,0.0,WeatherDisplay:10.37,2013-02-18 05:26:00,
2013-02-17 19:31:00,70.0,59.3,30.12,NNW,338,7.1,7.6,69,0.00,SCT,BKN,0.05,0.0,WeatherDisplay:10.37,2013-02-18 05:31:00,
2013-02-17 19:36:00,70.0,59.3,30.15,NNE,22,7.8,8.1,69,0.00,SCT,BKN,0.05,0.0,WeatherDisplay:10.37,2013-02-18 05:36:00,
2013-02-17 19:41:00,70.0,59.7,30.15,ENE,68,6.0,6.0,70,0.00,SCT,BKN,0.05,0.0,WeatherDisplay:10.37,2013-02-18 05:41:00,
2013-02-17 19:46:00,70.0,59.7,30.15,SE,135,8.7,10.4,70,0.00,SCT,BKN,0.05,0.0,WeatherDisplay:10.37,2013-02-18 05:46:00,
2013-02-17 19:51:00,70.0,58.9,30.18,NNE,22,4.0,9.2,68,0.00,SCT,BKN,0.05,0.0,WeatherDisplay:10.37,2013-02-18 05:51:00,
2013-02-17 19:56:00,69.8,58.8,30.18,NE,45,2.4,6.9,68,0.00,SCT,BKN,0.05,0.0,WeatherDisplay:10.37,2013-02-18 05:56:00,
2013-02-17 20:01:00,70.0,58.5,30.18,ENE,68,7.6,15.0,67,0.00,SCT,BKN,0.05,0.0,WeatherDisplay:10.37,2013-02-18 06:01:00,
2013-02-17 20:06:00,69.8,58.8,30.18,NE,45,6.2,6.9,68,0.00,SCT,BKN,0.05,0.0,WeatherDisplay:10.37,2013-02-18 06:06:00,
2013-02-17 20:11:00,70.0,58.9,30.18,ENE,68,9.4,12.7,68,0.00,SCT,BKN,0.05,0.0,WeatherDisplay:10.37,2013-02-18 06:11:00,
2013-02-17 20:16:00,69.8,58.3,30.18,NE,45,3.3,5.8,67,0.00,SCT,BKN,0.05,0.0,WeatherDisplay:10.37,2013-02-18 06:16:00,
2013-02-17 20:21:00,70.0,58.9,30.18,North,0,6.4,6.9,68,0.00,SCT,BKN,0.05,0.0,WeatherDisplay:10.37,2013-02-18 06:21:00,
2013-02-17 20:26:00,69.8,58.3,30.18,NE,45,2.9,12.7,67,0.00,SCT,BKN,0.05,0.0,WeatherDisplay:10.37,2013-02-18 06:26:00,
2013-02-17 20:31:00,70.0,58.9,30.18,NNE,22,4.7,8.1,68,0.00,SCT,BKN,0.05,0.0,WeatherDisplay:10.37,2013-02-18 06:31:00,
2013-02-17 20:36:00,70.0,58.9,30.18,NE,45,7.6,9.2,68,0.00,SCT,BKN,0.05,0.0,WeatherDisplay:10.37,2013-02-18 06:36:00,
2013-02-17 20:41:00,70.0,58.9,30.18,ENE,68,4.7,9.7,68,0.00,SCT,BKN,0.05,0.0,WeatherDisplay:10.37,2013-02-18 06:41:00,
2013-02-17 20:46:00,70.0,59.7,30.18,NE,45,4.5,5.8,70,0.00,SCT,BKN,0.05,0.0,WeatherDisplay:10.37,2013-02-18 06:46:00,
2013-02-17 20:51:00,70.0,59.7,30.18,ESE,112,4.0,8.1,70,0.00,SCT,BKN,0.05,0.0,WeatherDisplay:10.37,2013-02-18 06:51:00,
2013-02-17 20:56:00,70.2,60.3,30.18,NNE,22,3.8,8.1,71,0.00,SCT,BKN,0.05,0.0,WeatherDisplay:10.37,2013-02-18 06:56:00,
2013-02-17 21:01:00,70.2,60.3,30.18,NW,315,3.8,5.8,71,0.00,SCT,BKN,0.05,0.0,WeatherDisplay:10.37,2013-02-18 07:01:00,
2013-02-17 21:06:00,70.2,60.3,30.18,NE,45,8.1,10.4,71,0.00,SCT,BKN,0.05,0.0,WeatherDisplay:10.37,2013-02-18 07:06:00,
2013-02-17 21:11:00,70.0,60.1,30.18,NE,45,2.4,6.9,71,0.00,SCT,BKN,0.05,0.0,WeatherDisplay:10.37,2013-02-18 07:11:00,
2013-02-17 21:16:00,70.0,60.1,30.18,NNW,338,4.5,8.1,71,0.00,SCT,BKN,0.05,0.0,WeatherDisplay:10.37,2013-02-18 07:16:00,
2013-02-17 21:21:00,70.0,60.1,30.21,NE,45,4.7,4.7,71,0.00,SCT,BKN,0.05,0.0,WeatherDisplay:10.37,2013-02-18 07:21:00,
2013-02-17 21:26:00,70.0,59.7,30.21,North,0,3.8,8.1,70,0.00,SCT,BKN,0.05,0.0,WeatherDisplay:10.37,2013-02-18 07:26:00,
2013-02-17 21:31:00,70.0,59.7,30.21,NE,45,5.6,5.8,70,0.00,SCT,BKN,0.05,0.0,WeatherDisplay:10.37,2013-02-18 07:31:00,
2013-02-17 21:36:00,69.8,59.6,30.18,North,0,4.0,6.0,70,0.00,SCT,BKN,0.05,0.0,WeatherDisplay:10.37,2013-02-18 07:36:00,
2013-02-17 21:41:00,70.0,59.3,30.18,NNW,338,5.4,10.4,69,0.00,SCT,BKN,0.05,0.0,WeatherDisplay:10.37,2013-02-18 07:41:00,
2013-02-17 21:46:00,70.0,59.3,30.18,North,0,4.0,5.8,69,0.00,SCT,BKN,0.05,0.0,WeatherDisplay:10.37,2013-02-18 07:46:00,
2013-02-17 21:51:00,69.8,59.2,30.21,NNW,338,1.4,8.1,69,0.00,SCT,BKN,0.05,0.0,WeatherDisplay:10.37,2013-02-18 07:51:00,
2013-02-17 21:56:00,69.8,58.8,30.21,NE,45,4.5,9.2,68,0.00,SCT,BKN,0.05,0.0,WeatherDisplay:10.37,2013-02-18 07:56:00,
2013-02-17 22:01:00,69.8,58.8,30.21,North,0,2.2,5.8,68,0.00,SCT,BKN,0.05,0.0,WeatherDisplay:10.37,2013-02-18 08:01:00,
2013-02-17 22:06:00,69.8,59.6,30.21,NE,45,4.3,6.9,70,0.00,SCT,BKN,0.05,0.0,WeatherDisplay:10.37,2013-02-18 08:06:00,
2013-02-17 22:11:00,69.8,60.0,30.21,NE,45,4.7,6.9,71,0.00,SCT,BKN,0.05,0.0,WeatherDisplay:10.37,2013-02-18 08:11:00,
2013-02-17 22:16:00,69.6,60.2,30.21,NE,45,6.7,9.2,72,0.00,SCT,BKN,0.05,0.0,WeatherDisplay:10.37,2013-02-18 08:16:00,
2013-02-17 22:21:00,69.6,60.2,30.21,North,0,2.6,3.6,72,0.00,SCT,BKN,0.05,0.0,WeatherDisplay:10.37,2013-02-18 08:21:00,
2013-02-17 22:26:00,69.6,60.2,30.21,NNE,22,6.9,12.8,72,0.00,SCT,BKN,0.05,0.0,WeatherDisplay:10.37,2013-02-18 08:26:00,
2013-02-17 22:31:00,69.6,60.2,30.21,ESE,112,4.0,8.1,72,0.00,SCT,BKN,0.05,0.0,WeatherDisplay:10.37,2013-02-18 08:31:00,
2013-02-17 22:36:00,69.6,59.8,30.18,East,90,9.0,10.5,71,0.00,SCT,BKN,0.05,0.0,WeatherDisplay:10.37,2013-02-18 08:36:00,
2013-02-17 22:41:00,69.6,60.2,30.18,NE,45,4.3,4.6,72,0.00,SCT,BKN,0.05,0.0,WeatherDisplay:10.37,2013-02-18 08:41:00,
2013-02-17 22:46:00,69.6,59.8,30.18,ENE,68,3.6,10.4,71,0.00,SCT,BKN,0.05,0.0,WeatherDisplay:10.37,2013-02-18 08:46:00,
2013-02-17 22:51:00,69.6,60.2,30.18,ENE,68,4.5,12.7,72,0.00,SCT,BKN,0.05,0.0,WeatherDisplay:10.37,2013-02-18 08:51:00,
2013-02-17 22:56:00,69.6,60.2,30.18,NNW,338,5.9,10.0,72,0.00,SCT,BKN,0.05,0.0,WeatherDisplay:10.37,2013-02-18 08:56:00,
2013-02-17 23:01:00,69.6,60.2,30.18,ENE,68,4.7,12.7,72,0.00,SCT,BKN,0.05,0.0,WeatherDisplay:10.37,2013-02-18 09:01:00,
2013-02-17 23:06:00,69.6,60.2,30.18,South,180,4.5,5.8,72,0.00,SCT,BKN,0.05,0.0,WeatherDisplay:10.37,2013-02-18 09:06:00,
2013-02-17 23:11:00,69.6,60.2,30.18,East,90,5.4,6.9,72,0.00,SCT,BKN,0.05,0.0,WeatherDisplay:10.37,2013-02-18 09:11:00,
2013-02-17 23:16:00,69.3,58.7,30.18,ENE,68,4.5,5.8,69,0.00,SCT,BKN,0.05,0.0,WeatherDisplay:10.37,2013-02-18 09:16:00,
2013-02-17 23:21:00,69.1,58.1,30.18,SE,135,2.0,3.5,68,0.00,SCT,BKN,0.05,0.0,WeatherDisplay:10.37,2013-02-18 09:21:00,
2013-02-17 23:26:00,68.9,58.3,30.18,NE,45,2.6,8.1,69,0.00,SCT,BKN,0.05,0.0,WeatherDisplay:10.37,2013-02-18 09:26:00,
2013-02-17 23:31:00,69.1,58.9,30.18,NE,45,4.5,5.8,70,0.00,SCT,BKN,0.05,0.0,WeatherDisplay:10.37,2013-02-18 09:31:00,
2013-02-17 23:36:00,69.1,59.3,30.18,NNE,22,4.3,5.9,71,0.00,SCT,BKN,0.05,0.0,WeatherDisplay:10.37,2013-02-18 09:36:00,
2013-02-17 23:41:00,69.3,59.5,30.18,ENE,68,4.3,10.4,71,0.00,SCT,BKN,0.05,0.0,WeatherDisplay:10.37,2013-02-18 09:41:00,
2013-02-17 23:46:00,69.3,60.2,30.18,NNE,22,6.4,8.5,73,0.00,SCT,BKN,0.05,0.0,WeatherDisplay:10.37,2013-02-18 09:46:00,
2013-02-17 23:51:00,69.3,60.6,30.18,NE,45,4.3,8.7,74,0.00,SCT,BKN,0.05,0.0,WeatherDisplay:10.37,2013-02-18 09:51:00,
2013-02-17 23:56:00,69.3,61.0,30.18,South,180,2.9,6.2,75,0.00,SCT,BKN,0.05,0.0,WeatherDisplay:10.37,2013-02-18 09:56:00,